Cloud_Cover
12 17 5 5 90 32 9 6 5 6 32 66 34 33 19 5 5 5 5 5 5 5 5 0 0 0 0 0 0 0 0 0 0 0 0 0 0 0 0 0 0 0 0 0 0
0 1 29 5 5 5 5 7 5 12 5 14 81 44 65 70 5 2 2 5 5 5 1 1 0 0 0 0 0 0 0 0 0 0 0 0 0 0 0 0 0 0 0 0 0
0 0 4 1 6 5 5 21 12 5 2 5 5 5 58 64 10 4 2 0 3 5 0 0 0 0 0 0 0 0 0 0 0 0 0 0 0 0 0 0 0 0 0 0 0
0 0 0 0 0 0 0 0 0 0 1 1 1 3 2 5 4 4 1 0 0 0 0 0 0 0 0 0 0 0 0 0 0 0 0 0 0 0 0 0 0 0 0 0 0
0 0 0 0 0 0 0 0 0 0 0 0 0 3 2 1 0 0 0 0 0 0 0 0 0 0 0 2 0 3 10 0 0 0 0 0 0 0 0 0 0 0 0 0 0
0 0 0 0 1 5 5 5 4 4 5 2 0 66 4 6 0 0 0 0 0 0 2 2 1 15 96 100 59 98 100 4 8 3 1 0 0 0 0 0 0 0 0 0 0
3 0 3 5 4 1 5 5 5 5 1 5 5 7 23 94 59 5 0 0 5 5 2 5 23 60 100 52 88 85 44 8 100 5 0 1 83 5 0 0 0 0 0 0 0
5 5 1 0 1 5 5 0 5 5 3 5 23 4 81 100 100 18 5 46 6 7 11 33 51 5 10 68 34 5 2 35 100 3 0 5 100 24 0 0 0 0 0 1 0
20 5 4 0 5 5 2 1 4 5 1 2 7 0 4 48 72 7 5 8 42 100 96 100 69 6 58 99 1 2 33 51 54 29 0 1 99 100 8 0 0 0 0 0 0
52 8 5 5 5 5 3 1 0 3 1 0 0 0 1 43 100 99 100 38 5 27 41 51 5 5 100 45 0 5 2 5 5 98 3 0 58 100 41 0 0 0 0 0 0
5 22 5 5 5 5 8 5 5 5 15 17 29 39 87 98 90 100 100 71 54 5 9 9 23 8 94 5 5 5 0 0 5 2 0 0 60 100 100 100 5 0 0 0 0
12 5 5 5 0 4 5 5 1 5 6 82 100 100 78 14 82 100 92 100 91 5 6 5 37 47 5 21 4 5 5 0 3 2 1 1 12 100 100 100 100 0 0 0 0
49 5 37 61 24 14 5 5 4 5 4 43 96 42 38 63 100 100 100 100 100 88 100 49 31 98 25 20 16 4 3 5 4 3 5 5 72 70 100 100 100 85 0 0 0
100 72 43 5 5 38 11 5 5 21 24 48 44 92 26 70 100 100 100 100 100 97 91 100 100 55 43 54 96 100 99 39 6 5 21 11 28 100 100 100 100 96 96 40 0
97 100 100 42 5 48 16 6 5 5 4 32 27 18 90 51 12 10 70 67 5 86 100 99 29 6 5 18 5 9 98 99 100 43 70 24 26 100 100 100 100 100 100 100 62
100 100 83 33 93 100 69 11 41 28 92 1 25 84 60 100 100 77 42 50 59 10 1 8 24 98 89 10 5 5 78 39 100 89 100 100 100 94 100 100 100 100 100 98 100
100 100 100 93 100 100 100 28 19 83 6 3 2 5 64 75 39 37 100 100 77 27 21 51 67 51 15 23 6 5 5 11 11 7 100 96 92 100 100 76 100 100 100 100 100
98 100 100 100 100 100 100 97 100 12 10 5 5 5 5 90 100 100 44 30 99 78 87 95 98 66 96 68 100 99 52 14 72 0 14 70 96 100 100 100 100 100 100 100 100
100 100 100 99 100 100 100 100 81 5 22 66 83 7 5 6 97 100 61 5 5 5 90 23 43 38 94 100 100 100 100 100 100 38 1 2 69 100 100 100 100 100 53 100 100
100 100 100 100 100 100 100 100 100 100 100 100 89 93 6 11 67 87 71 5 5 5 96 98 72 4 2 23 100 100 100 100 100 100 100 38 1 100 100 100 100 100 100 100 100
100 100 100 100 100 100 100 74 100 100 100 100 100 100 96 59 99 100 100 29 88 99 100 100 100 6 3 33 59 100 100 100 100 100 100 100 60 88 99 100 100 100 100 100 100
100 100 100 100 100 100 100 100 100 100 100 100 100 100 100 100 100 99 100 100 100 100 100 100 100 100 100 99 84 100 100 100 100 100 100 100 100 100 100 100 73 100 100 44 61
100 100 100 100 100 100 100 100 100 100 100 100 100 100 100 100 100 100 100 100 100 100 100 100 100 100 98 8 93 100 100 100 100 100 100 93 25 100 100 36 93 100 100 100 100
100 100 100 100 100 100 100 100 100 100 100 100 100 100 100 100 100 100 100 100 100 100 100 100 100 100 99 100 100 100 100 100 100 100 100 100 100 100 100 100 100 100 100 100 100
100 100 100 100 100 100 100 100 100 100 100 100 100 100 100 100 100 100 100 100 100 100 100 100 100 100 100 100 93 100 100 100 100 100 100 100 100 100 100 100 100 100 100 100 100
100 100 100 100 100 100 100 100 100 100 100 100 100 100 100 100 100 100 100 100 100 100 100 100 100 100 100 73 33 100 100 13 5 51 100 100 100 100 100 100 100 100 100 100 100
72 70 97 22 18 13 5 23 63 94 92 86 95 100 100 100 100 100 100 81 100 97 19 71 100 100 100 100 100 100 12 56 30 100 100 100 100 100 87 100 100 100 100 100 100